User: anonymous   Login
Location: Caltech
(34.1382°N, 118.1253°W)
Time: 02:12:23
(UTC-07:00)
Language:

NOSS 3-1 (C) - Orbit

View from above orbital plane
View from above orbital plane
View from above satellite
View from above satellite

Ground track
Ground track

The orbit data is extracted from the following two-line orbital elements,

1 26907U 01040C   18164.87761414 0.00000000  00000-0  00000-0 0    00
2 26907  63.4128 184.1371 0401000 359.7223   0.2777 13.41282088    01
Epoch (UTC): 13 June 2018 21:03:45
Eccentricity: 0.0401000
inclination: 63.4128°
perigee height: 804 km
apogee height: 1404 km
right ascension of ascending node: 184.1371°
argument of perigee: 359.7223°
revolutions per day: 13.41282088
mean anomaly at epoch: 0.2777°
orbit number at epoch: 0

The dashed part of the orbit path shows where the satellite is in the earth's shadow,  

DLR